EN

Hourly Weather Altsasu

Today, 21 January, Thursday

Time Temperature Precipitation Wind Pressure Humidity
00:00 +4°C° 0 mm 3 mps 693 mmHg 89%
01:00 +4°C° 0 mm 3 mps 693 mmHg 90%
02:00 +5°C° 0 mm 2 mps 693 mmHg 91%
03:00 +4°C° 0 mm 2 mps 693 mmHg 92%
04:00 +4°C° 0 mm 2 mps 694 mmHg 92%
05:00 +4°C° 0 mm 2 mps 694 mmHg 91%
06:00 +4°C° 0 mm 2 mps 695 mmHg 91%
07:00 +4°C° 0 mm 3 mps 695 mmHg 89%
08:00 +4°C° 0 mm 3 mps 695 mmHg 87%
09:00 +5°C° 0 mm 3 mps 695 mmHg 85%
10:00 +6°C° 0 mm 4 mps 695 mmHg 81%
11:00 +7°C° 0 mm 5 mps 694 mmHg 76%
12:00 +8°C° 0 mm 5 mps 694 mmHg 71%
13:00 +8°C° 0 mm 5 mps 694 mmHg 72%
14:00 +8°C° 0 mm 5 mps 693 mmHg 73%
15:00 +8°C° 0 mm 5 mps 693 mmHg 74%
16:00 +8°C° 0 mm 4 mps 693 mmHg 77%
17:00 +7°C° 0 mm 4 mps 693 mmHg 80%
18:00 +8°C° 0 mm 3 mps 693 mmHg 83%
19:00 +7°C° 0 mm 3 mps 693 mmHg 84%
20:00 +5°C° 0 mm 3 mps 694 mmHg 84%
21:00 +5°C° 0 mm 3 mps 694 mmHg 84%
22:00 +5°C° 0 mm 3 mps 693 mmHg 84%
23:00 +5°C° 0 mm 3 mps 693 mmHg 83%

Tomorrow, 22 January, Friday

Time Temperature Precipitation Wind Pressure Humidity
00:00 +5°C° 0 mm 3 mps 692 mmHg 83%
01:00 +5°C° 0 mm 3 mps 691 mmHg 83%
02:00 +5°C° 0 mm 3 mps 690 mmHg 83%
03:00 +5°C° 0 mm 4 mps 689 mmHg 83%
04:00 +5°C° 0.4 mm 4 mps 688 mmHg 83%
05:00 +5°C° 0.4 mm 5 mps 687 mmHg 84%
06:00 +5°C° 0.4 mm 6 mps 686 mmHg 85%
07:00 +4°C° 0.2 mm 6 mps 687 mmHg 82%
08:00 +4°C° 0.2 mm 7 mps 687 mmHg 80%
09:00 +4°C° 0.2 mm 7 mps 687 mmHg 77%
10:00 +2°C° 0.2 mm 8 mps 687 mmHg 78%
11:00 +2°C° 0.2 mm 10 mps 688 mmHg 80%
12:00 +1°C° 0.2 mm 11 mps 689 mmHg 81%
13:00 +1°C° 0.4 mm 11 mps 690 mmHg 77%
14:00 +2°C° 0.4 mm 11 mps 692 mmHg 74%
15:00 +2°C° 0.4 mm 10 mps 693 mmHg 70%
16:00 +1°C° 0.1 mm 8 mps 693 mmHg 74%
17:00 +1°C° 0.1 mm 6 mps 694 mmHg 78%
18:00 +1°C° 0.1 mm 3 mps 695 mmHg 82%
19:00 +1°C° 0.4 mm 3 mps 695 mmHg 83%
20:00 +1°C° 0.4 mm 3 mps 695 mmHg 85%
21:00 +2°C° 0.4 mm 2 mps 695 mmHg 87%
22:00 +2°C° 0.1 mm 2 mps 695 mmHg 87%
23:00 +2°C° 0.1 mm 2 mps 695 mmHg 86%

Day after tomorrow, 23 January, Saturday

Time Temperature Precipitation Wind Pressure Humidity
00:00 +2°C° 0.1 mm 2 mps 695 mmHg 86%
01:00 +1°C° 0 mm 3 mps 695 mmHg 87%
02:00 +1°C° 0 mm 3 mps 694 mmHg 88%
03:00 +1°C° 0 mm 3 mps 694 mmHg 89%
04:00 +2°C° 0.2 mm 3 mps 694 mmHg 89%
05:00 +1°C° 0.2 mm 4 mps 694 mmHg 89%
06:00 +1°C° 0.2 mm 4 mps 694 mmHg 89%
07:00 +1°C° 1.3 mm 4 mps 694 mmHg 91%
08:00 +2°C° 1.3 mm 3 mps 694 mmHg 92%
09:00 +2°C° 1.3 mm 3 mps 695 mmHg 93%
10:00 +2°C° 0.7 mm 3 mps 695 mmHg 92%
11:00 +2°C° 0.7 mm 3 mps 695 mmHg 91%
12:00 +4°C° 0.7 mm 2 mps 695 mmHg 90%
13:00 +3°C° 0.5 mm 2 mps 695 mmHg 92%
14:00 +4°C° 0.5 mm 1 mps 694 mmHg 93%
15:00 +4°C° 0.5 mm 1 mps 694 mmHg 94%
16:00 +4°C° 1.7 mm 1 mps 693 mmHg 95%
17:00 +2°C° 1.7 mm 2 mps 692 mmHg 96%
18:00 +2°C° 1.7 mm 2 mps 692 mmHg 97%
19:00 +2°C° 1.5 mm 2 mps 691 mmHg 97%
20:00 +2°C° 1.5 mm 2 mps 691 mmHg 97%
21:00 +3°C° 1.5 mm 1 mps 690 mmHg 97%
22:00 +3°C° 1.1 mm 1 mps 690 mmHg 97%
23:00 +3°C° 1.1 mm 1 mps 690 mmHg 98%

24 January, Sunday

Time Temperature Precipitation Wind Pressure Humidity
00:00 +3°C° 1.1 mm 1 mps 690 mmHg 98%
01:00 +2°C° 0.6 mm 2 mps 691 mmHg 97%
02:00 +1°C° 0.6 mm 3 mps 691 mmHg 97%
03:00 0°C° 0.6 mm 4 mps 692 mmHg 96%
04:00 +1°C° 0.3 mm 3 mps 692 mmHg 96%
05:00 +1°C° 0.3 mm 3 mps 693 mmHg 95%
06:00 +1°C° 0.3 mm 3 mps 694 mmHg 95%
07:00 +1°C° 0.1 mm 3 mps 694 mmHg 93%
08:00 +1°C° 0.1 mm 3 mps 695 mmHg 91%
09:00 +1°C° 0.1 mm 3 mps 696 mmHg 89%
10:00 +2°C° 0.4 mm 3 mps 696 mmHg 88%
11:00 +1°C° 0.4 mm 4 mps 696 mmHg 88%
12:00 +3°C° 0.4 mm 4 mps 697 mmHg 87%
13:00 +3°C° 0.6 mm 4 mps 697 mmHg 86%
14:00 +3°C° 0.6 mm 4 mps 697 mmHg 86%
15:00 +3°C° 0.6 mm 4 mps 697 mmHg 85%
16:00 +2°C° 1 mm 3 mps 697 mmHg 88%
17:00 +2°C° 1 mm 3 mps 697 mmHg 91%
18:00 +1°C° 1 mm 3 mps 698 mmHg 94%
19:00 +1°C° 0.6 mm 3 mps 698 mmHg 94%
20:00 +1°C° 0.6 mm 3 mps 699 mmHg 94%
21:00 0°C° 0.6 mm 4 mps 699 mmHg 94%
22:00 +1°C° 0.5 mm 3 mps 700 mmHg 94%
23:00 +1°C° 0.5 mm 3 mps 700 mmHg 95%

25 January, Monday

Time Temperature Precipitation Wind Pressure Humidity
00:00 +1°C° 0.5 mm 3 mps 700 mmHg 95%
01:00 +1°C° 0.6 mm 3 mps 701 mmHg 96%
02:00 +2°C° 0.6 mm 2 mps 701 mmHg 96%
03:00 +2°C° 0.6 mm 2 mps 701 mmHg 96%
04:00 +2°C° 0.4 mm 2 mps 701 mmHg 96%
05:00 +2°C° 0.4 mm 2 mps 702 mmHg 96%
06:00 +2°C° 0.4 mm 2 mps 702 mmHg 96%
07:00 +3°C° 0.2 mm 1 mps 703 mmHg 96%
08:00 +3°C° 0.2 mm 1 mps 703 mmHg 96%
09:00 +3°C° 0.2 mm 1 mps 704 mmHg 95%
10:00 +4°C° 0.1 mm 1 mps 704 mmHg 94%
11:00 +4°C° 0.1 mm 1 mps 704 mmHg 92%
12:00 +5°C° 0.1 mm 1 mps 704 mmHg 91%
13:00 +5°C° 0 mm 1 mps 704 mmHg 88%
14:00 +6°C° 0 mm 1 mps 704 mmHg 85%
15:00 +5°C° 0 mm 0 mps 704 mmHg 82%
16:00 +5°C° 0 mm 1 mps 704 mmHg 85%
17:00 +4°C° 0 mm 1 mps 704 mmHg 88%
18:00 +4°C° 0 mm 1 mps 704 mmHg 91%
19:00 +3°C° 0 mm 1 mps 704 mmHg 90%
20:00 +3°C° 0 mm 1 mps 704 mmHg 90%
21:00 +2°C° 0 mm 1 mps 704 mmHg 90%
22:00 +2°C° 0 mm 1 mps 704 mmHg 90%
23:00 +2°C° 0 mm 1 mps 704 mmHg 90%

26 January, Tuesday

Time Temperature Precipitation Wind Pressure Humidity
00:00 +2°C° 0 mm 1 mps 704 mmHg 90%
01:00 +1°C° 0 mm 2 mps 704 mmHg 90%
02:00 +2°C° 0 mm 2 mps 704 mmHg 90%
03:00 +2°C° 0 mm 2 mps 704 mmHg 90%
04:00 +2°C° 0 mm 2 mps 703 mmHg 90%
05:00 +2°C° 0 mm 2 mps 703 mmHg 90%
06:00 +2°C° 0 mm 2 mps 703 mmHg 90%
07:00 +3°C° 0 mm 2 mps 703 mmHg 89%
08:00 +4°C° 0 mm 2 mps 703 mmHg 89%
09:00 +5°C° 0 mm 2 mps 703 mmHg 88%
10:00 +5°C° 0 mm 3 mps 704 mmHg 85%
11:00 +8°C° 0 mm 3 mps 704 mmHg 81%
12:00 +10°C° 0 mm 3 mps 704 mmHg 78%
13:00 +9°C° 0 mm 3 mps 704 mmHg 81%
14:00 +9°C° 0 mm 3 mps 703 mmHg 83%
15:00 +9°C° 0 mm 2 mps 703 mmHg 85%
16:00 +9°C° 0.1 mm 2 mps 703 mmHg 87%
17:00 +9°C° 0.1 mm 2 mps 703 mmHg 89%
18:00 +9°C° 0.1 mm 2 mps 704 mmHg 91%
19:00 +9°C° 0.3 mm 2 mps 704 mmHg 92%
20:00 +9°C° 0.3 mm 2 mps 704 mmHg 93%
21:00 +9°C° 0.3 mm 2 mps 705 mmHg 94%
22:00 +9°C° 0.9 mm 2 mps 705 mmHg 95%
23:00 +9°C° 0.9 mm 2 mps 705 mmHg 95%
Show more